Terminal Aerodrome Forecast
Issued by NWS Grand Forks, ND

Home | Current Version | Previous Version | Text Only | Print | Product List | Glossary Off
Versions: 1 2 3 4 5 6 7 8 9 10 11 12 13 14 15

000
FTUS43 KFGF 110500
TAFGFK
TAF
KGFK 110520Z 1106/1206 18007KT P6SM SCT250
     FM111200 VRB06KT P6SM VCSH BKN060
     FM111500 32012KT P6SM SCT250=

USA.gov is the U.S. government's official web portal to all federal, state and local government web resources and services.